This is the latest recevied weather packets stored in our database for station/object IK0TIX. If no packets are shown the sender has not sent any weather packets the latest 10 day(s).
| Time | Temp. | Humidity | Pressure | Rain* | Wind** | Luminosity | Snow |
|---|---|---|---|---|---|---|---|
| 1777524567 | 13.89° C | 89% | 1017 hPa | 1.02 mm | - | - | - |
| 1777524290 | 13.89° C | 89% | 1017 hPa | 2.03 mm | - | - | - |
| 1777524008 | 13.89° C | 89% | 1017.1 hPa | 3.05 mm | - | - | - |
| 1777523682 | 13.89° C | 89% | 1017 hPa | 4.06 mm | - | - | - |
| 1777522811 | 13.89° C | 88% | 1017.1 hPa | 5.08 mm | - | - | - |
| 1777521579 | 13.89° C | 88% | 1017.2 hPa | 5.08 mm | - | - | - |
| 1777521304 | 13.89° C | 87% | 1017.3 hPa | 6.1 mm | - | - | - |
| 1777520683 | 14.44° C | 87% | 1017.4 hPa | 6.1 mm | - | - | - |
| 1777519187 | 14.44° C | 85% | 1017.6 hPa | 4.06 mm | - | - | - |
| 1777518270 | 15° C | 83% | 1017.6 hPa | 4.06 mm | - | - | - |
| 1777517081 | 15.56° C | 79% | 1017.6 hPa | 1.02 mm | - | - | - |
| 1777516485 | 15.56° C | 78% | 1017.6 hPa | 0 mm | - | - | - |
| 1777511673 | 16.67° C | 76% | 1017.5 hPa | 1.02 mm | - | - | - |
| 1777511106 | 16.11° C | 74% | 1017.4 hPa | 1.02 mm | - | - | - |
| 1777510802 | 16.11° C | 72% | 1017.5 hPa | 1.02 mm | - | - | - |
| 1777509295 | 17.22° C | 68% | 1017.5 hPa | 0 mm | - | - | - |
| 1777509004 | 17.22° C | 67% | 1017.5 hPa | 0 mm | - | - | - |
| 1777508085 | 18.33° C | 63% | 1017.4 hPa | 0 mm | - | - | - |
| 1777507473 | 18.33° C | 62% | 1017.5 hPa | 0 mm | - | - | - |
| 1777507201 | 18.33° C | 61% | 1017.4 hPa | 0 mm | - | - | - |
| 1777506879 | 18.33° C | 58% | 1017.2 hPa | 0 mm | - | - | - |
| 1777506267 | 18.89° C | 57% | 1017.1 hPa | 0 mm | - | - | - |
| 1777503598 | 18.89° C | 48% | 1016.5 hPa | 0 mm | - | - | - |
| 1777502713 | 18.89° C | 48% | 1016.5 hPa | 0 mm | - | - | - |
| 1777502078 | 19.44° C | 48% | 1016.6 hPa | 0 mm | - | - | - |
* Rain latest hour (hover to see other rain measurements)
** Current wind speed in m/s (hover to see current wind gust speed)